Погода в Волосовичах

Беларусь     52°32′06″N   29°06′53″E
темп.,
°C
ветер,
м/с
пор.,
м/с
влажн.,
%
обл.,
%
осадки,
мм/ч
давл.,
гПа
погр.,
м
7 мая, пт
пт700:00+5ююз346769 0.0 101155
03:00+4ююз3979100 0.0 1011188
06:00+6ююз4107992 0.0 1011230
09:00+10ююз4769100 0.0 1010489
12:00+12ююз7961100 0.2 10091529
15:00+12ю4868100 0.6 10081475
18:00+9вюв3793100 2.9 1006302
21:00+8ююз2297100 2.9 100538
8 мая, сб
сб800:00+7юз2396100 0.0 100452
03:00+7з379796 0.0 1005245
06:00+7з3697100 0.6 1005263
09:00+6зюз5892100 1.4 1007954
12:00+5сз61095100 1.3 1009849
15:00+11сз7105693 3.1 10112192
18:00+9зсз79616 0.3 10141578
21:00+5з411735 0.3 1017302
9 мая, вс
вс900:00+3з39885 0.0 1019184
03:00+2з39930 0.0 1020249
06:00+2зсз26955 0.0 1022130
09:00+8сз34685 0.0 1024612
12:00+12зсз34506 0.0 10251623
15:00+14зсз344148 0.0 10242080
18:00+14з234159 0.0 10242027
21:00+8зюз226631 0.0 102611
10 мая, пн
пн1000:00+7ююв226341 0.0 102720
03:00+5ююв35784 0.0 102877
06:00+5ю35805 0.0 102987
09:00+12ююв46575 0.0 1029395
12:00+16ююв56455 0.0 10291396
15:00+18ююв56434 0.0 10281554
18:00+17юв46520 0.0 10271240
21:00+11юв39771 0.0 1027152
11 мая, вт
вт1100:00+8юв310740 0.0 1029182
03:00+6ююв37782 0.0 1029124
06:00+6юв37800 0.0 1029127
09:00+12юв58590 0.0 1028539
12:00+17вюв57430 0.0 10261133
15:00+19вюв56390 0.0 10251332
18:00+18вюв46520 0.0 10241171
21:00+12вюв310780 0.0 1023181